EW8719 Richmond Hill GA US current weather conditions

sailwx.info

Wind from 194

Air temperature 19.4° C
Dewpoint 14.7° C

Last reported at 2019-Oct-18 15:00 UTC.
Time now 2019-Oct-18 15:52 UTC

Location: N 31°50' W 081°16'.
View on Google Maps.

See reports from other nearby stations

  
Tides and Currents Weather Stations Pressure Air Temp Water Temp Dewpoint Dewpoint Depression Visibility Wind Speed Wind Dir Waves Ship Positions
date/time (UTC)wind fromknots sea level pressurealtimeterstation pressurevisibilityair tempwater tempwave heightnotes
2019-Oct-18 15:00 194 19.4
2019-Oct-18 14:31 347 17.2
2019-Oct-18 14:16 034 16.7
2019-Oct-18 14:02 144 16.1
2019-Oct-18 13:46 329 15.6
2019-Oct-18 13:31 034 0 gusting 2 15.0
2019-Oct-18 13:16 171 13.9
2019-Oct-18 13:01 172 13.3
2019-Oct-18 12:46 172 12.8
2019-Oct-18 12:30 172 12.2
2019-Oct-18 12:16 005 11.7
2019-Oct-18 12:00 348 11.7
2019-Oct-18 11:45 348 11.7
2019-Oct-18 11:31 348 11.7
2019-Oct-18 11:15 348 11.7
2019-Oct-18 11:00 348 11.7
2019-Oct-18 10:45 348 11.7
2019-Oct-18 10:30 348 11.7
2019-Oct-18 10:15 348 11.7
2019-Oct-18 10:00 348 11.7
2019-Oct-18 09:46 348 11.7
2019-Oct-18 09:30 348 12.2
2019-Oct-18 09:15 348 12.8
2019-Oct-18 09:00 348 12.8
2019-Oct-18 08:45 348 12.8
2019-Oct-18 08:30 348 12.8
2019-Oct-18 08:15 348 12.8
2019-Oct-18 08:00 348 13.3
2019-Oct-18 07:30 348 13.3
2019-Oct-18 07:15 348 13.9
2019-Oct-18 07:00 348 14.4
2019-Oct-18 06:45 348 14.4
2019-Oct-18 06:30 348 14.4
2019-Oct-18 06:17 348 14.4
2019-Oct-18 06:01 348 13.9
2019-Oct-18 05:46 348 13.9
2019-Oct-18 05:32 348 13.9
2019-Oct-18 05:16 348 13.9
2019-Oct-18 05:01 348 13.9
2019-Oct-18 04:47 348 13.9
2019-Oct-18 04:31 348 13.9
2019-Oct-18 04:18 348 13.9
2019-Oct-18 04:01 348 13.9
2019-Oct-18 03:46 348 13.9
2019-Oct-18 03:31 348 13.9
2019-Oct-18 03:16 348 14.4
2019-Oct-18 03:01 348 14.4
2019-Oct-18 02:46 348 14.4
2019-Oct-18 02:31 348 14.4
2019-Oct-18 02:16 348 14.4
2019-Oct-18 02:02 348 14.4
2019-Oct-18 01:46 348 14.4
2019-Oct-18 01:31 348 14.4
2019-Oct-18 01:16 348 15.0
2019-Oct-18 01:00 348 15.0
2019-Oct-18 00:46 348 15.0
2019-Oct-18 00:31 348 0 gusting 1 15.0
2019-Oct-18 00:15 348 15.6
2019-Oct-18 00:02 348 15.6
2019-Oct-17 23:46 348 16.1
2019-Oct-17 23:31 348 16.7
2019-Oct-17 23:15 348 17.2
2019-Oct-17 23:01 348 17.8
2019-Oct-17 22:46 348 18.9
2019-Oct-17 22:31 071 20.0
2019-Oct-17 22:16 300 0 gusting 1 20.6
2019-Oct-17 22:00 300 0 gusting 1 21.1
2019-Oct-17 21:45 300 0 gusting 2 21.7
2019-Oct-17 21:30 300 0 gusting 3 21.7
2019-Oct-17 21:16 300 1 gusting 4 22.2
2019-Oct-17 21:00 301 1 gusting 4 22.2
2019-Oct-17 20:46 306 1 gusting 4 22.2
2019-Oct-17 20:30 304 1 gusting 5 21.7
2019-Oct-17 20:16 334 2 gusting 5 22.2
2019-Oct-17 20:00 330 2 gusting 5 21.7
2019-Oct-17 19:46 309 2 gusting 6 21.7
2019-Oct-17 19:30 298 2 gusting 4 21.7
2019-Oct-17 19:15 339 1 gusting 6 21.7
2019-Oct-17 19:00 225 1 gusting 6 21.7
2019-Oct-17 18:46 244 3 gusting 6 21.1
2019-Oct-17 18:31 274 2 gusting 7 21.1
2019-Oct-17 18:15 312 2 gusting 6 21.1
2019-Oct-17 18:00 273 1 gusting 3 20.6
2019-Oct-17 17:45 282 2 gusting 6 20.0
2019-Oct-17 17:30 304 2 gusting 6 20.0
2019-Oct-17 17:15 281 2 gusting 6 20.0
2019-Oct-17 17:00 284 1 gusting 5 19.4
2019-Oct-17 16:45 304 1 gusting 4 18.9
2019-Oct-17 16:30 293 2 gusting 5 18.9
2019-Oct-17 16:15 311 2 gusting 4 17.8
2019-Oct-17 16:00 311 1 gusting 6 17.8
2019-Oct-17 15:45 340 1 gusting 4 17.2
2019-Oct-17 15:30 335 2 gusting 4 16.7
2019-Oct-17 15:15 342 1 gusting 4 16.1
2019-Oct-17 15:00 341 2 gusting 5 15.6
2019-Oct-17 14:45 323 1 gusting 5 15.0
2019-Oct-17 14:30 319 2 gusting 5 14.4
2019-Oct-17 14:15 311 2 gusting 5 13.9
2019-Oct-17 13:46 312 2 gusting 7 13.3
2019-Oct-17 13:32 312 1 gusting 5 12.8
2019-Oct-17 13:17 348 2 gusting 5 12.8
2019-Oct-17 13:01 304 2 gusting 4 12.2
2019-Oct-17 12:46 308 1 gusting 2 11.7
2019-Oct-17 12:32 303 0 gusting 2 11.7
2019-Oct-17 12:16 303 0 gusting 3 11.7
2019-Oct-17 12:02 302 0 gusting 2 11.7
2019-Oct-17 11:47 302 1 gusting 2 11.7
2019-Oct-17 11:31 317 1 gusting 3 11.7
2019-Oct-17 11:01 296 0 gusting 3 12.2
2019-Oct-17 10:46 304 0 gusting 3 12.2
2019-Oct-17 10:32 308 1 gusting 3 12.8
2019-Oct-17 10:16 292 1 gusting 3 12.8
2019-Oct-17 10:00 302 0 gusting 2 12.8
2019-Oct-17 09:45 302 0 gusting 2 13.3
2019-Oct-17 09:30 310 0 gusting 1 13.3
2019-Oct-17 09:15 310 13.3
2019-Oct-17 09:01 310 13.3
2019-Oct-17 08:45 310 13.9
2019-Oct-17 08:30 310 0 gusting 1 13.9
2019-Oct-17 08:15 310 13.9
2019-Oct-17 08:01 310 0 gusting 2 14.4
2019-Oct-17 07:45 311 0 gusting 2 14.4
2019-Oct-17 07:30 311 0 gusting 2 15.0
2019-Oct-17 07:15 311 1 gusting 4 15.6
2019-Oct-17 07:00 314 1 gusting 5 15.6
2019-Oct-17 06:47 328 1 gusting 3 16.1
2019-Oct-17 06:31 310 1 gusting 4 16.1
2019-Oct-17 06:17 331 1 gusting 4 16.7
2019-Oct-17 06:01 340 2 gusting 6 16.7
2019-Oct-17 05:47 336 2 gusting 7 17.2
2019-Oct-17 05:32 325 3 gusting 7 17.2
2019-Oct-17 05:16 334 2 gusting 5 17.8
2019-Oct-17 05:01 323 1 gusting 4 18.3
2019-Oct-17 04:46 311 2 gusting 5 18.3
2019-Oct-17 04:31 305 3 gusting 7 18.9
2019-Oct-17 04:16 310 3 gusting 7 19.4
2019-Oct-17 04:01 312 4 gusting 7 20.0
2019-Oct-17 03:45 311 3 gusting 8 20.0
2019-Oct-17 03:15 306 2 gusting 5 21.1
2019-Oct-17 03:00 325 3 gusting 6 21.1
2019-Oct-17 02:46 307 2 gusting 6 21.7
2019-Oct-17 02:31 300 0 gusting 3 21.7
2019-Oct-17 02:16 299 1 gusting 3 21.7
2019-Oct-17 02:01 300 1 gusting 3 22.2
2019-Oct-17 01:46 290 2 gusting 6 22.2
2019-Oct-17 01:30 280 0 gusting 3 22.2
2019-Oct-17 01:15 246 0 gusting 2 22.8
2019-Oct-17 01:00 246 0 gusting 2 22.8
2019-Oct-17 00:45 247 0 gusting 2 22.8
2019-Oct-17 00:30 247 0 gusting 2 23.3
2019-Oct-17 00:17 265 1 gusting 3 23.3
2019-Oct-17 00:02 265 0 gusting 2 23.3
2019-Oct-16 23:46 249 0 gusting 3 23.9
2019-Oct-16 23:31 248 0 gusting 2 23.9
2019-Oct-16 23:16 242 0 gusting 3 24.4
2019-Oct-16 23:00 245 1 gusting 4 25.0
2019-Oct-16 22:46 246 0 gusting 3 25.6
2019-Oct-16 22:30 272 1 gusting 6 26.1
2019-Oct-16 22:15 280 3 gusting 6 26.7
2019-Oct-16 22:00 282 4 gusting 10 26.7
2019-Oct-16 21:32 313 5 gusting 11 26.1
2019-Oct-16 21:15 284 2 gusting 7 26.7
2019-Oct-16 21:01 288 6 gusting 12 26.7
2019-Oct-16 20:46 284 3 gusting 9 27.2
2019-Oct-16 20:30 318 3 gusting 9 27.2
2019-Oct-16 20:17 314 5 gusting 10 27.2
2019-Oct-16 20:00 286 3 gusting 11 27.8
2019-Oct-16 19:16 277 4 gusting 9 27.8
2019-Oct-16 19:01 303 6 gusting 12 26.7
2019-Oct-16 18:46 284 7 gusting 17 26.7
2019-Oct-16 18:31 278 6 gusting 13 26.7
2019-Oct-16 18:15 280 5 gusting 14 26.7
2019-Oct-16 18:00 292 6 gusting 11 27.2
2019-Oct-16 17:45 302 5 gusting 14 26.7
2019-Oct-16 17:30 310 5 gusting 13 26.7
2019-Oct-16 17:17 288 4 gusting 8 26.1
2019-Oct-16 17:01 265 4 gusting 11 25.6
2019-Oct-16 16:46 321 5 gusting 9 25.6
2019-Oct-16 16:31 257 3 gusting 8 25.0
2019-Oct-16 16:16 269 5 gusting 9 25.0
2019-Oct-16 16:00 262 4 gusting 8 24.4
2019-Oct-16 15:45 238 5 gusting 10 23.9
2019-Oct-16 15:32 276 1 gusting 6 23.3
2019-Oct-16 15:16 240 2 gusting 7 23.3
2019-Oct-16 15:02 270 2 gusting 6 23.9